Time,TemperatureF,DewpointF,PressureIn,WindDirection,WindDirectionDegrees,WindSpeedMPH,WindSpeedGustMPH,Humidity,HourlyPrecipIn,Conditions,Clouds,dailyrainin,SoftwareType,DateUTC
2013-02-12 00:05:00,39.9,5.0,30.35,NNW,345,0.0,7.0,23,0.00,,,0.17,Wunderground v.1.15,2013-02-12 08:05:00,
2013-02-12 00:10:00,39.9,5.0,30.35,NW,312,0.0,7.0,23,0.00,,,0.17,Wunderground v.1.15,2013-02-12 08:10:00,
2013-02-12 00:15:00,39.9,5.0,30.35,NW,312,0.0,7.0,23,0.00,,,0.18,Wunderground v.1.15,2013-02-12 08:15:00,
2013-02-12 00:20:00,39.9,5.0,30.35,NW,312,0.0,7.0,23,0.00,,,0.18,Wunderground v.1.15,2013-02-12 08:20:00,
2013-02-12 00:25:00,39.8,4.9,30.35,NW,312,0.0,7.0,23,0.00,,,0.18,Wunderground v.1.15,2013-02-12 08:25:00,
2013-02-12 00:30:00,39.8,4.9,30.35,NW,314,0.0,7.0,23,0.00,,,0.00,Wunderground v.1.15,2013-02-12 08:30:00,
2013-02-12 00:35:00,39.8,4.9,30.35,NNW,340,1.0,7.0,23,0.00,,,0.00,Wunderground v.1.15,2013-02-12 08:35:00,
2013-02-12 00:40:00,39.9,5.0,30.35,NNW,339,1.0,7.0,23,0.00,,,0.00,Wunderground v.1.15,2013-02-12 08:40:00,
2013-02-12 00:45:00,39.9,5.0,30.35,NNW,341,1.0,7.0,23,0.00,,,0.00,Wunderground v.1.15,2013-02-12 08:45:00,
2013-02-12 00:50:00,39.9,5.0,30.35,NNW,347,1.0,7.0,23,0.00,,,0.00,Wunderground v.1.15,2013-02-12 08:50:00,
2013-02-12 00:55:00,39.9,5.0,30.35,NW,307,1.0,7.0,23,0.00,,,0.00,Wunderground v.1.15,2013-02-12 08:55:00,
2013-02-12 01:00:00,39.9,5.0,30.35,North,5,1.0,7.0,23,0.00,,,0.00,Wunderground v.1.15,2013-02-12 09:00:00,
2013-02-12 01:05:00,39.9,5.0,30.34,North,356,0.0,7.0,23,0.00,,,0.00,Wunderground v.1.15,2013-02-12 09:05:00,
2013-02-12 01:10:00,39.9,5.0,30.34,North,5,0.0,7.0,23,0.00,,,0.00,Wunderground v.1.15,2013-02-12 09:10:00,
2013-02-12 01:15:00,39.9,5.0,30.34,NNW,339,0.0,7.0,23,0.00,,,0.00,Wunderground v.1.15,2013-02-12 09:15:00,
2013-02-12 01:20:00,39.8,4.9,30.34,NNE,22,0.0,7.0,23,0.00,,,0.00,Wunderground v.1.15,2013-02-12 09:20:00,
2013-02-12 01:25:00,39.8,4.9,30.34,NNE,22,0.0,7.0,23,0.00,,,0.00,Wunderground v.1.15,2013-02-12 09:25:00,
2013-02-12 01:30:00,39.8,4.9,30.34,WNW,299,0.0,7.0,23,0.00,,,0.00,Wunderground v.1.15,2013-02-12 09:30:00,
2013-02-12 01:40:00,39.7,4.9,30.35,ESE,114,0.0,7.0,23,0.00,,,0.00,Wunderground v.1.15,2013-02-12 09:40:00,
2013-02-12 01:45:00,39.8,4.9,30.35,ENE,71,0.0,7.0,23,0.00,,,0.00,Wunderground v.1.15,2013-02-12 09:45:00,
2013-02-12 01:50:00,39.8,4.9,30.35,SSE,150,1.0,1.0,23,0.00,,,0.00,Wunderground v.1.15,2013-02-12 09:50:00,
2013-02-12 01:55:00,39.8,4.9,30.35,West,279,0.0,7.0,23,0.00,,,0.00,Wunderground v.1.15,2013-02-12 09:55:00,
2013-02-12 02:05:00,39.8,4.9,30.35,NNE,14,0.0,7.0,23,0.00,,,0.00,Wunderground v.1.15,2013-02-12 10:05:00,
2013-02-12 02:10:00,39.7,4.9,30.35,NW,314,0.0,7.0,23,0.00,,,0.00,Wunderground v.1.15,2013-02-12 10:10:00,
2013-02-12 02:15:00,39.7,4.9,30.35,NE,34,0.0,7.0,23,0.00,,,0.00,Wunderground v.1.15,2013-02-12 10:15:00,
2013-02-12 02:20:00,39.8,4.9,30.35,NW,318,1.0,1.0,23,0.00,,,0.00,Wunderground v.1.15,2013-02-12 10:20:00,
2013-02-12 02:25:00,39.8,4.9,30.35,NNE,29,1.0,7.0,23,0.00,,,0.00,Wunderground v.1.15,2013-02-12 10:25:00,
2013-02-12 02:30:00,39.8,4.9,30.35,NNE,29,0.0,7.0,23,0.00,,,0.00,Wunderground v.1.15,2013-02-12 10:30:00,
2013-02-12 02:35:00,39.7,4.9,30.36,NNE,29,0.0,7.0,23,0.00,,,0.00,Wunderground v.1.15,2013-02-12 10:35:00,
2013-02-12 02:40:00,39.8,4.9,30.35,NNE,29,0.0,7.0,23,0.00,,,0.00,Wunderground v.1.15,2013-02-12 10:40:00,
2013-02-12 02:45:00,39.8,4.9,30.36,NW,325,0.0,7.0,23,0.00,,,0.00,Wunderground v.1.15,2013-02-12 10:45:00,
2013-02-12 02:50:00,39.8,4.9,30.36,NW,325,0.0,7.0,23,0.00,,,0.00,Wunderground v.1.15,2013-02-12 10:50:00,
2013-02-12 02:55:00,39.8,4.9,30.36,NE,44,1.0,7.0,23,0.00,,,0.00,Wunderground v.1.15,2013-02-12 10:55:00,
2013-02-12 03:00:00,39.9,5.0,30.36,NE,37,1.0,1.0,23,0.00,,,0.00,Wunderground v.1.15,2013-02-12 11:00:00,
2013-02-12 03:05:00,39.9,5.0,30.36,NE,37,0.0,7.0,23,0.00,,,0.00,Wunderground v.1.15,2013-02-12 11:05:00,
2013-02-12 03:10:00,39.9,5.0,30.36,NNW,342,0.0,7.0,23,0.00,,,0.00,Wunderground v.1.15,2013-02-12 11:10:00,
2013-02-12 03:15:00,39.9,5.0,30.36,NNE,18,1.0,7.0,23,0.00,,,0.00,Wunderground v.1.15,2013-02-12 11:15:00,
2013-02-12 03:20:00,39.9,5.0,30.36,NNE,18,0.0,7.0,23,0.00,,,0.00,Wunderground v.1.15,2013-02-12 11:20:00,
2013-02-12 03:25:00,39.9,5.0,30.36,NNE,18,0.0,7.0,23,0.00,,,0.00,Wunderground v.1.15,2013-02-12 11:25:00,
2013-02-12 03:30:00,39.9,5.0,30.36,North,359,0.0,7.0,23,0.00,,,0.00,Wunderground v.1.15,2013-02-12 11:30:00,
2013-02-12 03:35:00,39.9,5.0,30.36,North,360,0.0,7.0,23,0.00,,,0.00,Wunderground v.1.15,2013-02-12 11:35:00,
2013-02-12 03:40:00,39.9,5.0,30.36,North,360,0.0,7.0,23,0.00,,,0.00,Wunderground v.1.15,2013-02-12 11:40:00,
2013-02-12 03:45:00,39.9,5.0,30.35,North,359,0.0,7.0,23,0.00,,,0.00,Wunderground v.1.15,2013-02-12 11:45:00,
2013-02-12 03:50:00,39.9,5.0,30.36,ENE,66,0.0,7.0,23,0.00,,,0.00,Wunderground v.1.15,2013-02-12 11:50:00,
2013-02-12 03:55:00,40.0,5.1,30.36,NW,319,0.0,7.0,23,0.00,,,0.00,Wunderground v.1.15,2013-02-12 11:55:00,
2013-02-12 04:00:00,40.0,5.1,30.36,North,359,0.0,7.0,23,0.00,,,0.00,Wunderground v.1.15,2013-02-12 12:00:00,
2013-02-12 04:05:00,40.0,5.1,30.36,North,349,1.0,7.0,23,0.00,,,0.00,Wunderground v.1.15,2013-02-12 12:05:00,
2013-02-12 04:10:00,40.0,5.1,30.36,North,349,1.0,1.0,23,0.00,,,0.00,Wunderground v.1.15,2013-02-12 12:10:00,
2013-02-12 04:15:00,39.9,5.0,30.36,NNE,13,1.0,7.0,23,0.00,,,0.00,Wunderground v.1.15,2013-02-12 12:15:00,
2013-02-12 04:20:00,39.9,5.0,30.35,WSW,249,0.0,7.0,23,0.00,,,0.00,Wunderground v.1.15,2013-02-12 12:20:00,
2013-02-12 04:25:00,39.9,5.0,30.36,NW,321,1.0,7.0,23,0.00,,,0.00,Wunderground v.1.15,2013-02-12 12:25:00,
2013-02-12 04:30:00,39.9,5.0,30.35,North,9,1.0,1.0,23,0.00,,,0.00,Wunderground v.1.15,2013-02-12 12:30:00,
2013-02-12 04:35:00,39.9,5.0,30.35,West,274,1.0,7.0,23,0.00,,,0.00,Wunderground v.1.15,2013-02-12 12:35:00,
2013-02-12 04:40:00,39.8,4.9,30.35,NNW,334,0.0,7.0,23,0.00,,,0.00,Wunderground v.1.15,2013-02-12 12:40:00,
2013-02-12 04:50:00,39.8,4.9,30.35,North,8,1.0,1.0,23,0.00,,,0.00,Wunderground v.1.15,2013-02-12 12:50:00,
2013-02-12 04:55:00,39.7,4.9,30.35,NNW,335,1.0,2.0,23,0.00,,,0.00,Wunderground v.1.15,2013-02-12 12:55:00,
2013-02-12 05:00:00,39.7,4.9,30.35,SW,220,1.0,7.0,23,0.00,,,0.00,Wunderground v.1.15,2013-02-12 13:00:00,
2013-02-12 05:05:00,39.7,4.9,30.35,NNW,332,1.0,7.0,23,0.00,,,0.00,Wunderground v.1.15,2013-02-12 13:05:00,
2013-02-12 05:15:00,39.7,4.9,30.35,North,11,1.0,7.0,23,0.00,,,0.00,Wunderground v.1.15,2013-02-12 13:15:00,
2013-02-12 05:20:00,39.7,4.9,30.35,NE,37,1.0,1.0,23,0.00,,,0.00,Wunderground v.1.15,2013-02-12 13:20:00,
2013-02-12 05:25:00,39.7,4.9,30.35,SE,146,1.0,7.0,23,0.00,,,0.00,Wunderground v.1.15,2013-02-12 13:25:00,
2013-02-12 05:30:00,39.8,4.9,30.35,West,281,1.0,1.0,23,0.00,,,0.00,Wunderground v.1.15,2013-02-12 13:30:00,
2013-02-12 05:35:00,39.8,4.9,30.35,ENE,75,1.0,7.0,23,0.00,,,0.00,Wunderground v.1.15,2013-02-12 13:35:00,
2013-02-12 05:40:00,39.9,5.0,30.35,ENE,76,0.0,7.0,23,0.00,,,0.00,Wunderground v.1.15,2013-02-12 13:40:00,
2013-02-12 05:45:00,39.9,6.0,30.35,SSW,211,0.0,7.0,24,0.00,,,0.00,Wunderground v.1.15,2013-02-12 13:45:00,
2013-02-12 05:50:00,39.9,6.0,30.35,SE,146,1.0,7.0,24,0.00,,,0.00,Wunderground v.1.15,2013-02-12 13:50:00,
2013-02-12 06:00:00,40.0,6.9,30.35,SE,146,0.0,7.0,25,0.00,,,0.00,Wunderground v.1.15,2013-02-12 14:00:00,
2013-02-12 06:05:00,39.9,6.9,30.35,SE,146,0.0,7.0,25,0.00,,,0.00,Wunderground v.1.15,2013-02-12 14:05:00,
2013-02-12 06:10:00,39.9,7.7,30.35,SSE,147,0.0,7.0,26,0.00,,,0.00,Wunderground v.1.15,2013-02-12 14:10:00,
2013-02-12 06:15:00,39.9,7.7,30.35,SE,143,0.0,7.0,26,0.00,,,0.00,Wunderground v.1.15,2013-02-12 14:15:00,
2013-02-12 06:20:00,39.9,7.7,30.35,SE,143,0.0,7.0,26,0.00,,,0.00,Wunderground v.1.15,2013-02-12 14:20:00,
2013-02-12 06:25:00,39.8,7.6,30.35,NE,53,0.0,7.0,26,0.00,,,0.00,Wunderground v.1.15,2013-02-12 14:25:00,
2013-02-12 06:30:00,39.8,6.8,30.35,NE,53,0.0,7.0,25,0.00,,,0.00,Wunderground v.1.15,2013-02-12 14:30:00,
2013-02-12 06:35:00,39.8,6.8,30.35,NE,53,0.0,7.0,25,0.00,,,0.00,Wunderground v.1.15,2013-02-12 14:35:00,
2013-02-12 06:45:00,39.7,5.8,30.36,West,259,0.0,7.0,24,0.00,,,0.00,Wunderground v.1.15,2013-02-12 14:45:00,
2013-02-12 06:50:00,39.7,5.8,30.36,West,259,0.0,7.0,24,0.00,,,0.00,Wunderground v.1.15,2013-02-12 14:50:00,
2013-02-12 06:55:00,39.7,5.8,30.36,WSW,243,0.0,7.0,24,0.00,,,0.00,Wunderground v.1.15,2013-02-12 14:55:00,
2013-02-12 07:00:00,39.8,5.9,30.36,North,6,0.0,7.0,24,0.00,,,0.00,Wunderground v.1.15,2013-02-12 15:00:00,
2013-02-12 07:05:00,39.8,4.9,30.36,North,4,0.0,7.0,23,0.00,,,0.00,Wunderground v.1.15,2013-02-12 15:05:00,
2013-02-12 07:10:00,39.9,5.0,30.37,West,266,0.0,7.0,23,0.00,,,0.00,Wunderground v.1.15,2013-02-12 15:10:00,
2013-02-12 07:15:00,39.9,5.0,30.36,West,266,0.0,7.0,23,0.00,,,0.00,Wunderground v.1.15,2013-02-12 15:15:00,
2013-02-12 07:20:00,39.8,4.9,30.36,West,266,0.0,7.0,23,0.00,,,0.00,Wunderground v.1.15,2013-02-12 15:20:00,
2013-02-12 07:25:00,39.8,5.9,30.37,West,266,0.0,7.0,24,0.00,,,0.00,Wunderground v.1.15,2013-02-12 15:25:00,
2013-02-12 07:30:00,39.7,5.8,30.37,WNW,287,0.0,7.0,24,0.00,,,0.00,Wunderground v.1.15,2013-02-12 15:30:00,
2013-02-12 07:35:00,39.6,5.7,30.37,NNE,14,1.0,7.0,24,0.00,,,0.00,Wunderground v.1.15,2013-02-12 15:35:00,
2013-02-12 07:40:00,39.7,5.8,30.37,NNW,335,1.0,7.0,24,0.00,,,0.00,Wunderground v.1.15,2013-02-12 15:40:00,
2013-02-12 07:45:00,39.7,5.8,30.37,NNW,334,1.0,7.0,24,0.00,,,0.00,Wunderground v.1.15,2013-02-12 15:45:00,
2013-02-12 07:55:00,39.8,4.9,30.37,NNW,335,0.0,7.0,23,0.00,,,0.00,Wunderground v.1.15,2013-02-12 15:55:00,
2013-02-12 08:00:00,39.8,4.9,30.37,SE,143,0.0,7.0,23,0.00,,,0.00,Wunderground v.1.15,2013-02-12 16:00:00,
2013-02-12 08:05:00,39.8,4.9,30.37,WNW,294,1.0,7.0,23,0.00,,,0.00,Wunderground v.1.15,2013-02-12 16:05:00,
2013-02-12 08:15:00,39.9,5.0,30.37,NNE,30,1.0,7.0,23,0.00,,,0.00,Wunderground v.1.15,2013-02-12 16:15:00,
2013-02-12 08:20:00,40.1,5.2,30.38,North,355,1.0,7.0,23,0.00,,,0.00,Wunderground v.1.15,2013-02-12 16:20:00,
2013-02-12 08:25:00,40.1,5.2,30.38,NW,312,1.0,7.0,23,0.00,,,0.00,Wunderground v.1.15,2013-02-12 16:25:00,
2013-02-12 08:30:00,40.3,5.4,30.38,NNW,341,1.0,7.0,23,0.00,,,0.00,Wunderground v.1.15,2013-02-12 16:30:00,
2013-02-12 08:35:00,40.4,4.5,30.38,ENE,67,1.0,7.0,22,0.00,,,0.00,Wunderground v.1.15,2013-02-12 16:35:00,
2013-02-12 08:40:00,40.6,4.7,30.38,NNW,340,1.0,1.0,22,0.00,,,0.00,Wunderground v.1.15,2013-02-12 16:40:00,
2013-02-12 08:45:00,40.7,4.7,30.38,NNE,12,1.0,7.0,22,0.00,,,0.00,Wunderground v.1.15,2013-02-12 16:45:00,
2013-02-12 08:50:00,40.7,4.7,30.38,NW,326,1.0,7.0,22,0.00,,,0.00,Wunderground v.1.15,2013-02-12 16:50:00,
2013-02-12 08:55:00,40.8,4.8,30.38,ESE,111,0.0,7.0,22,0.00,,,0.00,Wunderground v.1.15,2013-02-12 16:55:00,
2013-02-12 09:00:00,40.9,4.9,30.38,North,9,1.0,1.0,22,0.00,,,0.00,Wunderground v.1.15,2013-02-12 17:00:00,
2013-02-12 09:05:00,40.9,5.9,30.39,NNE,16,1.0,7.0,23,0.00,,,0.00,Wunderground v.1.15,2013-02-12 17:05:00,
2013-02-12 09:10:00,40.9,5.9,30.38,NW,324,1.0,7.0,23,0.00,,,0.00,Wunderground v.1.15,2013-02-12 17:10:00,
2013-02-12 09:15:00,41.1,5.1,30.38,NE,34,1.0,7.0,22,0.00,,,0.00,Wunderground v.1.15,2013-02-12 17:15:00,
2013-02-12 09:25:00,41.4,4.3,30.38,NNE,26,0.0,7.0,21,0.00,,,0.00,Wunderground v.1.15,2013-02-12 17:25:00,
2013-02-12 09:30:00,41.5,4.4,30.38,NNE,25,0.0,7.0,21,0.00,,,0.00,Wunderground v.1.15,2013-02-12 17:30:00,
2013-02-12 09:35:00,41.6,4.5,30.38,NNW,335,0.0,7.0,21,0.00,,,0.00,Wunderground v.1.15,2013-02-12 17:35:00,
2013-02-12 09:40:00,41.8,3.6,30.38,NNW,336,0.0,7.0,20,0.00,,,0.00,Wunderground v.1.15,2013-02-12 17:40:00,
2013-02-12 09:45:00,41.9,3.7,30.38,North,6,1.0,7.0,20,0.00,,,0.00,Wunderground v.1.15,2013-02-12 17:45:00,
2013-02-12 09:50:00,42.0,3.8,30.38,NNE,19,1.0,7.0,20,0.00,,,0.00,Wunderground v.1.15,2013-02-12 17:50:00,
2013-02-12 09:55:00,42.1,3.8,30.38,NNE,19,0.0,7.0,20,0.00,,,0.00,Wunderground v.1.15,2013-02-12 17:55:00,
2013-02-12 10:00:00,42.2,3.9,30.38,NNE,19,0.0,7.0,20,0.00,,,0.00,Wunderground v.1.15,2013-02-12 18:00:00,
2013-02-12 10:05:00,42.3,2.9,30.38,NNW,342,0.0,7.0,19,0.00,,,0.00,Wunderground v.1.15,2013-02-12 18:05:00,
2013-02-12 10:10:00,42.4,3.0,30.38,SSE,159,1.0,1.0,19,0.00,,,0.00,Wunderground v.1.15,2013-02-12 18:10:00,
2013-02-12 10:15:00,42.5,3.1,30.39,SSE,159,0.0,7.0,19,0.00,,,0.00,Wunderground v.1.15,2013-02-12 18:15:00,
2013-02-12 10:20:00,42.6,3.1,30.39,SSE,160,0.0,7.0,19,0.00,,,0.00,Wunderground v.1.15,2013-02-12 18:20:00,
2013-02-12 10:25:00,42.6,3.1,30.40,SSE,159,0.0,7.0,19,0.00,,,0.00,Wunderground v.1.15,2013-02-12 18:25:00,
2013-02-12 10:30:00,42.7,3.2,30.40,SSE,158,1.0,1.0,19,0.00,,,0.00,Wunderground v.1.15,2013-02-12 18:30:00,
2013-02-12 10:40:00,42.9,3.4,30.40,SSE,158,0.0,7.0,19,0.00,,,0.00,Wunderground v.1.15,2013-02-12 18:40:00,
2013-02-12 10:45:00,43.0,2.3,30.40,SSE,158,0.0,7.0,18,0.00,,,0.00,Wunderground v.1.15,2013-02-12 18:45:00,
2013-02-12 10:50:00,43.1,2.4,30.40,SSE,158,0.0,7.0,18,0.00,,,0.00,Wunderground v.1.15,2013-02-12 18:50:00,
2013-02-12 10:55:00,43.3,2.6,30.39,SSE,158,0.0,7.0,18,0.00,,,0.00,Wunderground v.1.15,2013-02-12 18:55:00,
2013-02-12 11:00:00,43.5,2.7,30.39,North,349,0.0,7.0,18,0.00,,,0.00,Wunderground v.1.15,2013-02-12 19:00:00,
2013-02-12 11:05:00,43.7,2.9,30.39,SE,143,1.0,7.0,18,0.00,,,0.00,Wunderground v.1.15,2013-02-12 19:05:00,
2013-02-12 11:10:00,44.1,2.0,30.39,SE,143,0.0,7.0,17,0.00,,,0.01,Wunderground v.1.15,2013-02-12 19:10:00,
2013-02-12 11:15:00,44.4,2.2,30.39,SE,143,0.0,7.0,17,0.00,,,0.01,Wunderground v.1.15,2013-02-12 19:15:00,
2013-02-12 11:20:00,44.5,2.3,30.39,SE,143,0.0,7.0,17,0.00,,,0.01,Wunderground v.1.15,2013-02-12 19:20:00,
2013-02-12 11:25:00,44.6,2.4,30.39,SE,143,0.0,7.0,17,0.00,,,0.01,Wunderground v.1.15,2013-02-12 19:25:00,
2013-02-12 11:35:00,45.1,5.2,30.38,SE,133,1.0,7.0,19,0.00,,,0.01,Wunderground v.1.15,2013-02-12 19:35:00,
2013-02-12 11:40:00,45.4,10.7,30.38,East,89,0.0,7.0,24,0.00,,,0.01,Wunderground v.1.15,2013-02-12 19:40:00,
2013-02-12 11:45:00,45.5,19.4,30.38,SE,144,1.0,7.0,35,0.00,,,0.01,Wunderground v.1.15,2013-02-12 19:45:00,
2013-02-12 11:50:00,45.6,27.5,30.38,SSE,163,1.0,1.0,49,0.00,,,0.01,Wunderground v.1.15,2013-02-12 19:50:00,
2013-02-12 11:55:00,45.6,32.5,30.38,ENE,74,1.0,7.0,60,0.00,,,0.01,Wunderground v.1.15,2013-02-12 19:55:00,
2013-02-12 12:00:00,45.7,30.9,30.38,ENE,68,1.0,1.0,56,0.00,,,0.01,Wunderground v.1.15,2013-02-12 20:00:00,
2013-02-12 12:05:00,45.8,29.6,30.38,North,9,0.0,7.0,53,0.00,,,0.01,Wunderground v.1.15,2013-02-12 20:05:00,
2013-02-12 12:10:00,45.9,29.7,30.38,NW,321,0.0,7.0,53,0.00,,,0.01,Wunderground v.1.15,2013-02-12 20:10:00,
2013-02-12 12:20:00,46.0,28.4,30.37,NW,321,0.0,7.0,50,0.00,,,0.01,Wunderground v.1.15,2013-02-12 20:20:00,
2013-02-12 12:25:00,45.9,30.6,30.37,NW,321,0.0,7.0,55,0.00,,,0.01,Wunderground v.1.15,2013-02-12 20:25:00,
2013-02-12 12:30:00,45.9,29.2,30.37,NW,321,0.0,7.0,52,0.00,,,0.01,Wunderground v.1.15,2013-02-12 20:30:00,
2013-02-12 12:35:00,45.9,30.6,30.37,NW,322,0.0,7.0,55,0.00,,,0.01,Wunderground v.1.15,2013-02-12 20:35:00,
2013-02-12 12:40:00,45.9,29.2,30.36,North,7,0.0,7.0,52,0.00,,,0.01,Wunderground v.1.15,2013-02-12 20:40:00,
2013-02-12 12:50:00,45.2,32.1,30.36,ENE,67,0.0,7.0,60,0.00,,,0.01,Wunderground v.1.15,2013-02-12 20:50:00,
2013-02-12 12:55:00,44.8,33.7,30.36,NNW,347,0.0,7.0,65,0.00,,,0.01,Wunderground v.1.15,2013-02-12 20:55:00,
2013-02-12 13:00:00,44.5,33.1,30.36,NNW,327,0.0,7.0,64,0.00,,,0.01,Wunderground v.1.15,2013-02-12 21:00:00,
2013-02-12 13:05:00,44.3,32.1,30.36,North,4,0.0,7.0,62,0.00,,,0.01,Wunderground v.1.15,2013-02-12 21:05:00,
2013-02-12 13:10:00,44.0,29.7,30.36,East,80,0.0,7.0,57,0.00,,,0.01,Wunderground v.1.15,2013-02-12 21:10:00,
2013-02-12 13:15:00,43.9,27.9,30.35,WSW,257,1.0,7.0,53,0.00,,,0.01,Wunderground v.1.15,2013-02-12 21:15:00,
2013-02-12 13:20:00,44.0,25.0,30.35,WSW,257,0.0,7.0,47,0.00,,,0.01,Wunderground v.1.15,2013-02-12 21:20:00,
2013-02-12 13:25:00,44.0,22.4,30.35,WSW,255,0.0,7.0,42,0.00,,,0.01,Wunderground v.1.15,2013-02-12 21:25:00,
2013-02-12 13:30:00,44.1,21.9,30.35,SE,129,0.0,7.0,41,0.00,,,0.01,Wunderground v.1.15,2013-02-12 21:30:00,
2013-02-12 13:35:00,44.1,24.6,30.34,NNW,343,1.0,7.0,46,0.00,,,0.01,Wunderground v.1.15,2013-02-12 21:35:00,
2013-02-12 13:40:00,43.9,30.5,30.34,NNE,16,2.0,2.0,59,0.00,,,0.01,Wunderground v.1.15,2013-02-12 21:40:00,
2013-02-12 13:45:00,44.0,27.0,30.33,East,101,2.0,7.0,51,0.00,,,0.01,Wunderground v.1.15,2013-02-12 21:45:00,
2013-02-12 13:50:00,44.3,28.7,30.32,SE,131,1.0,1.0,54,0.00,,,0.01,Wunderground v.1.15,2013-02-12 21:50:00,
2013-02-12 13:55:00,44.5,34.6,30.32,NNE,30,1.0,7.0,68,0.00,,,0.01,Wunderground v.1.15,2013-02-12 21:55:00,
2013-02-12 14:00:00,44.4,35.6,30.33,ENE,60,1.0,7.0,71,0.00,,,0.01,Wunderground v.1.15,2013-02-12 22:00:00,
2013-02-12 14:05:00,44.1,33.8,30.33,NNE,15,2.0,7.0,67,0.00,,,0.01,Wunderground v.1.15,2013-02-12 22:05:00,
2013-02-12 14:10:00,44.0,30.6,30.33,NE,36,1.0,7.0,59,0.00,,,0.01,Wunderground v.1.15,2013-02-12 22:10:00,
2013-02-12 14:15:00,43.9,30.9,30.32,ENE,71,1.0,7.0,60,0.00,,,0.01,Wunderground v.1.15,2013-02-12 22:15:00,
2013-02-12 14:20:00,43.9,32.1,30.32,ENE,75,1.0,1.0,63,0.00,,,0.01,Wunderground v.1.15,2013-02-12 22:20:00,
2013-02-12 14:25:00,44.0,33.4,30.32,ENE,70,1.0,7.0,66,0.00,,,0.01,Wunderground v.1.15,2013-02-12 22:25:00,
2013-02-12 14:30:00,44.0,34.1,30.32,NE,44,1.0,1.0,68,0.00,,,0.01,Wunderground v.1.15,2013-02-12 22:30:00,
2013-02-12 14:35:00,44.1,35.6,30.33,SW,228,1.0,7.0,72,0.00,,,0.01,Wunderground v.1.15,2013-02-12 22:35:00,
2013-02-12 14:40:00,44.2,37.4,30.33,SSW,208,1.0,1.0,77,0.00,,,0.01,Wunderground v.1.15,2013-02-12 22:40:00,
2013-02-12 14:45:00,44.3,37.9,30.32,SSW,210,0.0,7.0,78,0.00,,,0.01,Wunderground v.1.15,2013-02-12 22:45:00,
2013-02-12 14:50:00,44.3,37.5,30.32,WSW,245,1.0,1.0,77,0.00,,,0.01,Wunderground v.1.15,2013-02-12 22:50:00,
2013-02-12 14:55:00,44.4,35.2,30.32,WSW,245,0.0,7.0,70,0.00,,,0.01,Wunderground v.1.15,2013-02-12 22:55:00,
2013-02-12 15:00:00,44.3,36.9,30.32,East,81,0.0,7.0,75,0.00,,,0.01,Wunderground v.1.15,2013-02-12 23:00:00,
2013-02-12 15:05:00,44.2,36.4,30.32,SE,142,0.0,7.0,74,0.00,,,0.01,Wunderground v.1.15,2013-02-12 23:05:00,
2013-02-12 15:10:00,44.2,36.8,30.32,North,352,0.0,7.0,75,0.00,,,0.01,Wunderground v.1.15,2013-02-12 23:10:00,
2013-02-12 15:15:00,44.2,37.1,30.32,WSW,245,0.0,7.0,76,0.00,,,0.01,Wunderground v.1.15,2013-02-12 23:15:00,
2013-02-12 15:20:00,44.2,37.1,30.32,NE,44,0.0,7.0,76,0.00,,,0.01,Wunderground v.1.15,2013-02-12 23:20:00,
2013-02-12 15:25:00,44.2,34.7,30.32,NNW,338,1.0,7.0,69,0.00,,,0.01,Wunderground v.1.15,2013-02-12 23:25:00,
2013-02-12 15:35:00,44.1,35.3,30.32,ENE,65,1.0,7.0,71,0.00,,,0.01,Wunderground v.1.15,2013-02-12 23:35:00,
2013-02-12 15:40:00,44.0,33.4,30.32,NNW,344,1.0,1.0,66,0.00,,,0.01,Wunderground v.1.15,2013-02-12 23:40:00,
2013-02-12 15:45:00,43.9,33.3,30.31,NNE,19,1.0,7.0,66,0.00,,,0.01,Wunderground v.1.15,2013-02-12 23:45:00,
2013-02-12 15:50:00,43.8,30.8,30.32,NNW,329,1.0,7.0,60,0.00,,,0.01,Wunderground v.1.15,2013-02-12 23:50:00,
2013-02-12 15:55:00,43.8,28.7,30.31,SE,137,1.0,7.0,55,0.00,,,0.01,Wunderground v.1.15,2013-02-12 23:55:00,
2013-02-12 16:00:00,43.7,25.8,30.31,SE,136,0.0,7.0,49,0.00,,,0.01,Wunderground v.1.15,2013-02-13 00:00:00,
2013-02-12 16:05:00,43.7,23.2,30.32,NNW,345,1.0,7.0,44,0.00,,,0.01,Wunderground v.1.15,2013-02-13 00:05:00,
2013-02-12 16:10:00,43.7,20.9,30.32,NE,34,1.0,7.0,40,0.00,,,0.01,Wunderground v.1.15,2013-02-13 00:10:00,
2013-02-12 16:15:00,43.9,21.7,30.32,NNE,22,1.0,7.0,41,0.00,,,0.01,Wunderground v.1.15,2013-02-13 00:15:00,
2013-02-12 16:20:00,43.9,22.3,30.32,NNE,22,0.0,7.0,42,0.00,,,0.01,Wunderground v.1.15,2013-02-13 00:20:00,
2013-02-12 16:25:00,43.8,21.6,30.32,NNE,20,0.0,7.0,41,0.00,,,0.01,Wunderground v.1.15,2013-02-13 00:25:00,
2013-02-12 16:30:00,43.9,18.0,30.32,East,91,1.0,1.0,35,0.00,,,0.01,Wunderground v.1.15,2013-02-13 00:30:00,
2013-02-12 16:35:00,43.9,16.6,30.32,North,3,1.0,7.0,33,0.00,,,0.01,Wunderground v.1.15,2013-02-13 00:35:00,
2013-02-12 16:40:00,43.9,16.6,30.31,NNE,12,1.0,1.0,33,0.00,,,0.01,Wunderground v.1.15,2013-02-13 00:40:00,
2013-02-12 16:45:00,43.9,15.2,30.32,NNW,336,1.0,7.0,31,0.00,,,0.01,Wunderground v.1.15,2013-02-13 00:45:00,
2013-02-12 16:55:00,43.9,12.8,30.32,North,354,1.0,7.0,28,0.00,,,0.01,Wunderground v.1.15,2013-02-13 00:55:00,
2013-02-12 17:00:00,43.9,12.0,30.32,NW,312,1.0,7.0,27,0.00,,,0.01,Wunderground v.1.15,2013-02-13 01:00:00,
2013-02-12 17:05:00,44.1,10.5,30.32,ENE,65,0.0,7.0,25,0.00,,,0.01,Wunderground v.1.15,2013-02-13 01:05:00,
2013-02-12 17:10:00,44.0,12.9,30.31,NE,54,0.0,7.0,28,0.00,,,0.01,Wunderground v.1.15,2013-02-13 01:10:00,
2013-02-12 17:15:00,44.1,11.3,30.31,West,276,1.0,7.0,26,0.00,,,0.01,Wunderground v.1.15,2013-02-13 01:15:00,
2013-02-12 17:20:00,44.1,10.5,30.31,NNW,340,1.0,7.0,25,0.00,,,0.01,Wunderground v.1.15,2013-02-13 01:20:00,
2013-02-12 17:25:00,44.0,10.4,30.31,NNW,340,0.0,7.0,25,0.00,,,0.01,Wunderground v.1.15,2013-02-13 01:25:00,
2013-02-12 17:30:00,43.9,10.3,30.31,NNW,340,1.0,7.0,25,0.00,,,0.01,Wunderground v.1.15,2013-02-13 01:30:00,
2013-02-12 17:35:00,43.9,9.4,30.31,North,352,1.0,7.0,24,0.00,,,0.01,Wunderground v.1.15,2013-02-13 01:35:00,
2013-02-12 17:40:00,43.9,8.4,30.31,North,353,1.0,7.0,23,0.00,,,0.01,Wunderground v.1.15,2013-02-13 01:40:00,
2013-02-12 17:45:00,43.9,7.4,30.31,NNE,22,0.0,7.0,22,0.00,,,0.01,Wunderground v.1.15,2013-02-13 01:45:00,
2013-02-12 17:50:00,43.9,6.4,30.31,NNE,23,1.0,1.0,21,0.00,,,0.01,Wunderground v.1.15,2013-02-13 01:50:00,
2013-02-12 17:55:00,43.8,6.3,30.30,NNE,23,0.0,7.0,21,0.00,,,0.01,Wunderground v.1.15,2013-02-13 01:55:00,
2013-02-12 18:00:00,43.8,5.3,30.30,North,8,0.0,7.0,20,0.00,,,0.01,Wunderground v.1.15,2013-02-13 02:00:00,
2013-02-12 18:05:00,43.8,5.3,30.30,North,354,1.0,7.0,20,0.00,,,0.01,Wunderground v.1.15,2013-02-13 02:05:00,
2013-02-12 18:10:00,43.7,4.1,30.30,North,354,0.0,7.0,19,0.00,,,0.01,Wunderground v.1.15,2013-02-13 02:10:00,
2013-02-12 18:15:00,43.8,4.1,30.30,North,7,0.0,7.0,19,0.00,,,0.01,Wunderground v.1.15,2013-02-13 02:15:00,
2013-02-12 18:20:00,44.0,1.9,30.29,North,1,1.0,7.0,17,0.00,,,0.01,Wunderground v.1.15,2013-02-13 02:20:00,
2013-02-12 18:25:00,44.0,1.9,30.29,NE,38,1.0,7.0,17,0.00,,,0.01,Wunderground v.1.15,2013-02-13 02:25:00,
2013-02-12 18:30:00,44.2,2.1,30.29,NNW,338,1.0,1.0,17,0.00,,,0.01,Wunderground v.1.15,2013-02-13 02:30:00,
2013-02-12 18:35:00,44.2,2.1,30.29,NNW,339,0.0,7.0,17,0.00,,,0.01,Wunderground v.1.15,2013-02-13 02:35:00,
2013-02-12 18:40:00,44.2,2.1,30.29,NE,41,1.0,7.0,17,0.00,,,0.01,Wunderground v.1.15,2013-02-13 02:40:00,
2013-02-12 18:45:00,44.1,2.0,30.29,NNE,22,1.0,7.0,17,0.00,,,0.01,Wunderground v.1.15,2013-02-13 02:45:00,
2013-02-12 18:50:00,44.1,2.0,30.29,NNW,338,1.0,1.0,17,0.00,,,0.01,Wunderground v.1.15,2013-02-13 02:50:00,
2013-02-12 18:55:00,44.2,2.1,30.29,NNW,337,1.0,7.0,17,0.00,,,0.01,Wunderground v.1.15,2013-02-13 02:55:00,
2013-02-12 19:05:00,44.3,0.8,30.29,SW,221,1.0,7.0,16,0.00,,,0.01,Wunderground v.1.15,2013-02-13 03:05:00,
2013-02-12 19:10:00,44.4,0.9,30.29,SW,220,0.0,7.0,16,0.00,,,0.01,Wunderground v.1.15,2013-02-13 03:10:00,
2013-02-12 19:15:00,44.3,0.8,30.29,SW,221,0.0,7.0,16,0.00,,,0.01,Wunderground v.1.15,2013-02-13 03:15:00,
2013-02-12 19:20:00,44.3,0.8,30.29,NNW,332,1.0,1.0,16,0.00,,,0.01,Wunderground v.1.15,2013-02-13 03:20:00,
2013-02-12 19:25:00,44.4,0.9,30.28,NE,49,1.0,7.0,16,0.00,,,0.01,Wunderground v.1.15,2013-02-13 03:25:00,
2013-02-12 19:30:00,44.4,0.9,30.28,NE,56,1.0,7.0,16,0.00,,,0.01,Wunderground v.1.15,2013-02-13 03:30:00,
2013-02-12 19:35:00,44.3,0.8,30.28,NE,56,1.0,7.0,16,0.00,,,0.01,Wunderground v.1.15,2013-02-13 03:35:00,
2013-02-12 19:45:00,44.5,1.0,30.28,SW,214,1.0,7.0,16,0.00,,,0.01,Wunderground v.1.15,2013-02-13 03:45:00,
2013-02-12 19:50:00,44.9,-0.1,30.28,SW,214,1.0,1.0,15,0.00,,,0.01,Wunderground v.1.15,2013-02-13 03:50:00,
2013-02-12 19:55:00,44.8,1.2,30.28,East,91,1.0,3.0,16,0.00,,,0.01,Wunderground v.1.15,2013-02-13 03:55:00,
2013-02-12 20:00:00,45.1,2.8,30.28,ENE,60,1.0,1.0,17,0.00,,,0.01,Wunderground v.1.15,2013-02-13 04:00:00,
2013-02-12 20:05:00,45.1,5.2,30.27,NE,47,1.0,7.0,19,0.00,,,0.01,Wunderground v.1.15,2013-02-13 04:05:00,
2013-02-12 20:10:00,45.2,9.5,30.28,ENE,71,0.0,7.0,23,0.00,,,0.01,Wunderground v.1.15,2013-02-13 04:10:00,
2013-02-12 20:15:00,45.4,12.5,30.28,West,259,1.0,7.0,26,0.00,,,0.01,Wunderground v.1.15,2013-02-13 04:15:00,
2013-02-12 20:20:00,45.4,15.7,30.28,West,260,0.0,7.0,30,0.00,,,0.01,Wunderground v.1.15,2013-02-13 04:20:00,
2013-02-12 20:25:00,45.5,18.0,30.28,ENE,73,1.0,7.0,33,0.00,,,0.01,Wunderground v.1.15,2013-02-13 04:25:00,
2013-02-12 20:30:00,45.7,22.1,30.28,ESE,106,1.0,7.0,39,0.00,,,0.01,Wunderground v.1.15,2013-02-13 04:30:00,
2013-02-12 20:35:00,45.9,26.3,30.28,WSW,257,1.0,7.0,46,0.00,,,0.01,Wunderground v.1.15,2013-02-13 04:35:00,
2013-02-12 20:40:00,46.0,28.4,30.28,WSW,242,1.0,7.0,50,0.00,,,0.01,Wunderground v.1.15,2013-02-13 04:40:00,
2013-02-12 20:45:00,46.0,30.3,30.27,SE,141,1.0,7.0,54,0.00,,,0.01,Wunderground v.1.15,2013-02-13 04:45:00,
2013-02-12 20:50:00,46.0,30.3,30.27,SW,221,1.0,1.0,54,0.00,,,0.01,Wunderground v.1.15,2013-02-13 04:50:00,
2013-02-12 20:55:00,46.0,30.7,30.27,WSW,237,1.0,7.0,55,0.00,,,0.01,Wunderground v.1.15,2013-02-13 04:55:00,
2013-02-12 21:05:00,45.9,29.7,30.27,WSW,245,1.0,2.0,53,0.00,,,0.01,Wunderground v.1.15,2013-02-13 05:05:00,
2013-02-12 21:10:00,46.0,31.2,30.27,SW,218,1.0,1.0,56,0.00,,,0.01,Wunderground v.1.15,2013-02-13 05:10:00,
2013-02-12 21:15:00,46.1,32.1,30.26,SE,124,1.0,7.0,58,0.00,,,0.01,Wunderground v.1.15,2013-02-13 05:15:00,
2013-02-12 21:19:00,46.1,33.0,30.26,SE,139,1.0,7.0,60,0.00,,,0.01,Wunderground v.1.15,2013-02-13 05:19:00,
2013-02-12 21:25:00,46.3,34.4,30.27,WSW,255,2.0,7.0,63,0.00,,,0.01,Wunderground v.1.15,2013-02-13 05:25:00,
2013-02-12 21:30:00,46.4,35.7,30.27,SSE,157,2.0,2.0,66,0.00,,,0.01,Wunderground v.1.15,2013-02-13 05:30:00,
2013-02-12 21:35:00,46.5,36.5,30.27,WSW,248,1.0,7.0,68,0.00,,,0.01,Wunderground v.1.15,2013-02-13 05:35:00,
2013-02-12 21:40:00,46.5,36.9,30.27,WNW,288,1.0,7.0,69,0.00,,,0.01,Wunderground v.1.15,2013-02-13 05:40:00,
2013-02-12 21:45:00,46.5,37.6,30.27,SSW,210,1.0,7.0,71,0.00,,,0.01,Wunderground v.1.15,2013-02-13 05:45:00,
2013-02-12 21:50:00,46.5,37.2,30.27,West,275,1.0,1.0,70,0.00,,,0.01,Wunderground v.1.15,2013-02-13 05:50:00,
2013-02-12 21:55:00,46.4,36.0,30.28,WNW,303,1.0,7.0,67,0.00,,,0.01,Wunderground v.1.15,2013-02-13 05:55:00,
2013-02-12 22:00:00,46.3,35.9,30.27,SSE,149,0.0,7.0,67,0.00,,,0.01,Wunderground v.1.15,2013-02-13 06:00:00,
2013-02-12 22:05:00,46.4,37.1,30.27,WSW,256,1.0,7.0,70,0.00,,,0.01,Wunderground v.1.15,2013-02-13 06:05:00,
2013-02-12 22:10:00,46.6,38.1,30.27,SE,129,1.0,1.0,72,0.00,,,0.01,Wunderground v.1.15,2013-02-13 06:10:00,
2013-02-12 22:15:00,46.4,36.8,30.28,SW,231,1.0,2.0,69,0.00,,,0.01,Wunderground v.1.15,2013-02-13 06:15:00,
2013-02-12 22:20:00,46.4,37.1,30.28,SE,134,1.0,7.0,70,0.00,,,0.01,Wunderground v.1.15,2013-02-13 06:20:00,
2013-02-12 22:25:00,46.3,37.0,30.28,SSE,150,1.0,7.0,70,0.00,,,0.01,Wunderground v.1.15,2013-02-13 06:25:00,
2013-02-12 22:30:00,46.4,37.9,30.28,ESE,113,1.0,7.0,72,0.00,,,0.01,Wunderground v.1.15,2013-02-13 06:30:00,
2013-02-12 22:40:00,46.6,39.4,30.28,West,278,2.0,2.0,76,0.00,,,0.01,Wunderground v.1.15,2013-02-13 06:40:00,
2013-02-12 22:45:00,46.7,39.9,30.28,SW,218,2.0,7.0,77,0.00,,,0.01,Wunderground v.1.15,2013-02-13 06:45:00,
2013-02-12 22:50:00,46.7,40.2,30.28,South,179,1.0,7.0,78,0.00,,,0.01,Wunderground v.1.15,2013-02-13 06:50:00,
2013-02-12 22:55:00,46.8,40.6,30.28,SW,226,1.0,7.0,79,0.00,,,0.01,Wunderground v.1.15,2013-02-13 06:55:00,
2013-02-12 23:05:00,46.7,40.2,30.29,WNW,288,1.0,7.0,78,0.00,,,0.01,Wunderground v.1.15,2013-02-13 07:05:00,
2013-02-12 23:10:00,46.6,40.1,30.29,NE,47,0.0,7.0,78,0.00,,,0.01,Wunderground v.1.15,2013-02-13 07:10:00,
2013-02-12 23:15:00,46.4,39.2,30.29,NNW,347,0.0,7.0,76,0.00,,,0.01,Wunderground v.1.15,2013-02-13 07:15:00,
2013-02-12 23:20:00,46.4,39.6,30.30,ESE,121,0.0,7.0,77,0.00,,,0.01,Wunderground v.1.15,2013-02-13 07:20:00,
2013-02-12 23:25:00,46.4,40.2,30.29,WSW,248,1.0,7.0,79,0.00,,,0.01,Wunderground v.1.15,2013-02-13 07:25:00,
2013-02-12 23:30:00,46.7,41.2,30.29,ENE,75,1.0,7.0,81,0.00,,,0.01,Wunderground v.1.15,2013-02-13 07:30:00,
2013-02-12 23:35:00,46.6,41.1,30.28,SE,139,1.0,7.0,81,0.00,,,0.01,Wunderground v.1.15,2013-02-13 07:35:00,
2013-02-12 23:40:00,46.7,41.5,30.28,SW,231,1.0,7.0,82,0.00,,,0.01,Wunderground v.1.15,2013-02-13 07:40:00,
2013-02-12 23:45:00,46.7,41.5,30.29,WNW,284,1.0,7.0,82,0.00,,,0.01,Wunderground v.1.15,2013-02-13 07:45:00,
2013-02-12 23:50:00,46.7,41.5,30.29,West,277,1.0,1.0,82,0.00,,,0.01,Wunderground v.1.15,2013-02-13 07:50:00,